Regional Weather Roundup
Issued by NWS Charleston, WV

Home | Current Version | Previous Version | Graphics & Text | Print | Product List | Glossary On
Versions: 1 2 3 4 5 6 7 8 9 10 11 12 13 14 15 16 17 18 19 20 21 22 23 24 25 26 27 28 29 30 31 32 33 34 35 36 37 38 39 40 41 42 43 44 45 46 47 48 49
138
ASUS41 KRLX 080310
RWRRLX
West Virginia Regional Weather Roundup
National Weather Service Charleston WV
1000 PM EST SUN FEB 07 2016

Note: "fair" indicates few or no clouds below 12,000 feet with no
significant weather and/or obstructions to visibility.

WVZ003-080400-
Northern Panhandle of West Virginia

CITY           SKY/WX    TMP DP  RH WIND       PRES   REMARKS
WHEELING         N/A     41  22  46 SE8       29.85F
$$

WVZ009-080400-
Northwest West Virginia

CITY           SKY/WX    TMP DP  RH WIND       PRES   REMARKS
PARKERSBURG      N/A     39  23  52 S3        29.89F
$$

WVZ006-080400-
Western West Virginia

CITY           SKY/WX    TMP DP  RH WIND       PRES   REMARKS
HUNTINGTON       N/A     42  23  46 SW3       29.87F
$$

WVZ015-080400-
West Central West Virginia

CITY           SKY/WX    TMP DP  RH WIND       PRES   REMARKS
CHARLESTON       N/A     38  24  57 CALM      29.87F
$$

WVZ022-031-080400-
North Central West Virginia

CITY           SKY/WX    TMP DP  RH WIND       PRES   REMARKS
CLARKSBURG       N/A     34  24  67 CALM      29.87F
MORGANTOWN     CLOUDY    36  22  56 CALM      29.88F
$$

WVZ025-035-042-045-080400-
Southern West Virginia

CITY           SKY/WX    TMP DP  RH WIND       PRES   REMARKS
BECKLEY          N/A     30  20  66 S6        29.87F
LOGAN            N/A     41  23  48 CALM      29.87F
BLUEFIELD        N/A     33  18  53 W5        29.87F
LEWISBURG        N/A     35  24  66 CALM      29.87F
$$

WVZ047-080400-
Northern Mountains of West Virginia

CITY           SKY/WX    TMP DP  RH WIND       PRES   REMARKS
ELKINS           N/A     26  21  81 CALM      29.88F
$$

WVZ052-080400-
Eastern Panhandle of West Virginia

CITY           SKY/WX    TMP DP  RH WIND       PRES   REMARKS
MARTINSBURG      N/A     26  21  81 CALM      29.91F
PETERSBURG       N/A     29  26  87 CALM      29.92S
$$




USA.gov is the U.S. government's official web portal to all federal, state and local government web resources and services.